www.pogodaiklimat.ru

ПОГОДА в Три реки, MI

  • Прогноз погоды в Три реки
  • Монитор погоды в Три реки
  • Климат в Три реки

АРХИВ ПОГОДЫ в Три реки

Время (UTC), дата Ветер
(напр.,м/с)
 
Видим.   Явления Облачность Т
(С)
Тd
(С)
f
(%)
Тe
(С)
Тes
(С)
Комфортность

P
(гПа)

Po
(гПа)
Тmin
(С)
Tmax
(С)
R
(мм)
SD
(см)
03:35 24.03   16 км    ясно  -1.0  -5.0  74  -2  -2      993.5         
03:56 24.03   16 км    ясно  -0.7  -4.5  75  -2  -2      993.1         
04:15 24.03   16 км    ясно  -1.2  -4.7  77  -2  -2      993.1         
04:35 24.03   16 км    ясно  -1.2  -4.6  78  -2  -2      993.1         
04:55 24.03   16 км    ясно  -0.8  -3.8  80  -2  -2      993.1  -1.5  +7.6     
05:16 24.03   16 км    ясно  -1.0  -4.0  80  -2  -2      993.1         
05:36 24.03   16 км    ясно  -0.9  -3.9  80  -2  -2      993.1         
05:55 24.03   16 км    ясно  -0.8  -3.8  80  -2  -2      993.1         
06:15 24.03   16 км    ясно  -1.0  -3.9  81  -2  -2      992.8         
06:36 24.03   16 км    ясно  -1.0  -3.8  81  -2  -2      992.5         
06:55 24.03   16 км    ясно  -1.0  -3.6  82  -2  -2      992.2         
07:15 24.03   16 км    ясно  -0.7  -3.2  83  -2  -2      992.2         
07:36 24.03   16 км    ясно  -0.5  -2.6  86  -2  -2      992.2         
07:55 24.03   16 км    ясно  -0.1  -2.1  86  -1  -1      991.8         
08:15 24.03   16 км    ясно  -0.2  -2.2  86  -1  -1      991.5         
08:35 24.03   16 км    ясно  0.0  -2.0  86  -1  -1      991.5         
08:56 24.03   16 км    ясно  0.0  -1.6  89  -1  -1      991.5         
09:16 24.03   16 км    5/0 3600 м
[средняя] 
+0.1  -1.4  90  -1  -1      991.5         
09:35 24.03   16 км    8/0 3600 м
[средняя] 
0.0  -1.4  90  -1  -1      991.2         
09:55 24.03   16 км    10/0 3600 м
[средняя] 
0.0  -1.5  90  -1  -1      990.8         
10:16 24.03   16 км    10/0 3300 м
[средняя] 
+0.7  -0.7  90  -1  -1      990.8         
10:35 24.03   16 км    10/0 3000 м
[средняя] 
+0.3  -1.4  88  -1  -1      990.8         
10:55 24.03   16 км    10/0 3000 м
[средняя] 
+0.5  -1.0  90  -1  -1      990.8  -1.3  +1.0     
11:15 24.03   16 км    8/0 3000 м
[средняя] 
+0.8  -0.6  90  -0  -0      991.2         
11:36 24.03   16 км    10/0 3300 м
[средняя] 
+1.1  -0.5  89  -0  0      990.8         
11:55 24.03   16 км    10/0 3300 м
[средняя] 
+2.1  -0.3  84  +1  +1      990.8         
12:15 24.03 Ю  16 км    10/0 3000 м
[средняя] 
+3.0  -0.8  76  +1  +1      990.8         
12:36 24.03 ЮЗ  16 км    10/0 3000 м
[средняя] 
+3.6  -1.0  72  +2  +2      990.8         
12:56 24.03   16 км    10/0 3000 м
[средняя] 
+4.1  -1.0  69  +3  +4      990.8         
13:15 24.03   16 км    8/0 3000 м
[средняя] 
+5.8  -1.1  61  +5  +8      990.5         
13:36 24.03 ЮЗ  16 км    8/0 3000 м
[средняя] 
+6.7  -2.4  52  +5  +6      990.5         
13:56 24.03 ЮЗ  16 км    10/8 1470 м
[средняя] 
+6.7  -1.8  55  +3  +3      990.8         
14:16 24.03 ЮЗ  16 км    10/10 1350 м  +6.7  -1.5  56  +4  +4      990.8         
14:36 24.03 ЮЗ  16 км    10/10 1410 м  +7.5  -1.7  52  +5  +5      990.5         
14:55 24.03 Ю  16 км    10/8 1470 м
[средняя] 
+8.3  -1.7  49  +6  +7      990.5         
15:15 24.03 Ю  16 км    10/8 1470 м
[средняя] 
+8.9  -1.3  49  +7  +7      990.5         
15:36 24.03 Ю  16 км    10/8 1470 м
[средняя] 
+9.8  -1.2  46  +8  +9      990.5         
15:55 24.03 Ю  16 км    10/8 1470 м
[средняя] 
+10.0  -1.4  45  +8  +9      990.2         
16:15 24.03 Ю  16 км    10/10 1170 м  +10.0  -0.7  47  +8  +8      990.2         
16:36 24.03 Ю  16 км    10/10 1170 м  +10.1  0.0  49  +8  +8      989.9         
16:56 24.03 Ю  16 км    10/10 1170 м  +10.3  +0.6  51  +9  +9      989.5  +0.5  +10.5     
17:16 24.03 Ю  16 км    10/10 1110 м  +10.2  +1.0  53  +8  +8      989.5         
17:35 24.03 ЮЗ  16 км    10/10 1050 м  +10.5  +2.6  58  +8  +8      989.2         
17:55 24.03 ЮЗ  16 км    10/10 780 м  +10.3  +3.5  63  +8  +8      988.9         
18:16 24.03 ЮЗ  16 км    10/10 780 м  +10.0  +4.0  66  +8  +8      988.9         
18:35 24.03 ЮЗ  16 км    10/10 720 м  +10.0  +4.2  67  +8  +8      988.9         
18:55 24.03 ЮЗ  11 км    10/10 780 м  +9.6  +4.0  68  +7  +7      988.5         
19:16 24.03 З  16 км    10/10 780 м  +9.9  +4.2  68  +8  +8      988.5         

 

Местоположение метеостанции Haines Memorial Airport: широта 41.9598 долгота -85.5934 высота над уровнем моря 251 м.

В архиве по умолчанию представлена погода в Три реки за последние 1-2 суток. Обновление информации о фактической погоде в базе происходит ежечасно! Архивные данные за месяц целиком и за предыдущие месяцы Вы можете получить, выбрав интересующий диапазон дат из раскрывающегося списка и нажав кнопку "Ввод!".

Внимание! Архив погоды МЕТАР в базе сайта хранится не более 60 дней. Нет смысла пытаться выбрать более раннюю дату.

Внимание! Время в таблицах - всемирное. Для получения местного времени необходимо прибавить поправку, которая в Три реки равна -5 ч.

Ветер - указаны скорость ветра в м/с и направление, откуда дует ветер: С - северный, СВ - северо-восточный, В - восточный, ЮВ - юго-восточный, Ю - южный, ЮЗ - юго-западный, З - западный, СЗ - северо-западный.
Видимость - горизонтальная дальность видимости в метрах или километрах. При видимости от 1 до 10 км при отсутствии осадков обычно наблюдается дымка, при ухудшении видимости до 1 км и менее - туман. В сухую погоду видимость может ухудшаться дымом, пылью или мглою.
Атмосферные явления - указаны явления, наблюдавшиеся в указанный момент времени.
Облачность - указаны через наклонную черту верхняя и нижняя облачность в баллах и высота нижней границы облаков в метрах. Внимание: облачность, как и прочие метеорологические величины в США измеряются автоматическими метеостанциями. Указанные значения в баллах носят условный характер и показывают процент времени, в течение которого, в среднем, лазерный луч высотомера отражался от облаков обратно.
T - Температура воздуха - температура, измеренная на высоте 2 м над землей.
Td - Температура точки росы - температура, при понижении до которой содержащийся в воздухе водяной пар достигнет насыщения.
f - Относительная влажность воздуха - влажноcть воздуха, измеренная на высоте 2 м над землей.
Te - Эффективная температура - температура, которую ощущает одетый по сезону человек в тени. Характеристика душности погоды. При расчете учитывается влияние влажности воздуха и скорости ветра на теплоощущения человека.
Tes - Эффективная температура на солнце - температура, которую ощущает человек, с поправкой на солнечный нагрев. Характеристика знойности погоды. Зависит от высоты солнца над горизонтом, облачности и скорости ветра. Ночью, в пасмурную погоду, а также при ветре 12 м/с и более поправка равна нулю.
P - Атмосферное давление - приведенное к уровню моря атмосферное давление.
Po - Атмосферное давление - измеренное на уровне метеостанции атмосферное давление.
Tmin - Минимальная температура - минимум температуры воздуха на высоте 2 м над землей.
Tmax - Максимальная температура - максимум температуры воздуха на высоте 2 м над землей.
R - Количество осадков - Количество выпавших осадков за 3 или 6 часов, мм.
SD - Снежный покров - Высота снежного покрова, см.